Helicity
263 285 271 250 220 261 287 240 239 202 213 234 227 197 200 155 122 103 97 100 97 87 84 79 78 73 73
317 361 360 247 236 265 275 227 231 192 211 244 232 219 192 140 115 103 104 98 98 98 93 87 75 70 78
324 351 397 362 360 295 285 291 234 189 186 214 229 229 189 154 132 105 108 101 105 95 85 80 80 79 99
394 408 411 444 432 411 341 316 299 279 219 255 243 206 183 163 122 129 121 107 99 87 85 82 82 92 100
318 444 466 537 473 496 349 384 369 415 327 335 299 276 245 156 188 161 146 101 100 95 85 78 78 89 108
333 357 379 412 498 539 487 519 416 376 370 300 330 301 277 287 207 158 127 108 113 101 94 82 83 97 119
292 361 360 550 556 572 486 524 491 504 401 275 296 247 262 262 186 163 135 106 111 112 104 84 102 127 124
259 334 374 391 455 483 590 587 594 504 359 303 300 215 235 252 179 157 129 125 128 107 92 99 137 124 148
147 204 309 430 462 554 546 563 549 455 309 318 188 230 215 245 239 135 146 144 128 98 118 155 142 152 157
247 299 399 479 451 404 523 476 474 388 335 292 288 276 260 248 241 226 200 149 141 134 165 122 142 195 165
302 431 460 425 339 282 326 364 373 364 237 390 307 299 324 267 328 302 304 302 278 201 106 146 161 153 157
390 469 379 330 377 379 344 360 342 244 147 248 219 288 356 386 382 373 342 303 233 191 210 164 127 118 95
220 248 311 409 469 463 426 375 325 299 341 261 228 334 404 373 358 329 274 196 205 212 202 179 151 135 106
233 280 300 309 314 345 411 412 368 314 380 424 440 412 407 325 263 230 217 204 192 191 181 145 111 115 114
267 270 286 312 326 322 322 314 297 362 381 418 394 307 269 225 200 177 190 181 173 165 152 118 87 109 123
249 252 292 335 360 343 333 346 360 306 279 271 262 252 217 179 146 185 177 159 158 131 117 121 93 100 120
183 211 272 322 355 339 294 259 257 241 240 243 219 220 208 175 175 110 151 138 127 114 110 125 126 95 103
Wind_Speed
59 53 50 49 51 49 50 51 53 54 54 52 52 53 49 46 44 44 42 41 42 43 46 48 50 52 54
65 59 57 54 52 52 53 53 53 52 52 53 52 50 51 53 53 48 45 43 43 45 47 49 53 56 57
68 62 61 55 55 55 55 53 54 53 53 54 53 52 52 53 47 50 52 50 48 50 52 53 55 56 57
71 65 66 59 56 58 60 60 59 58 58 58 57 56 55 52 51 50 52 51 53 53 53 55 56 55 58
66 67 62 62 59 58 61 61 59 57 58 60 60 59 57 55 53 47 49 52 51 54 57 57 56 56 61
65 65 63 61 58 58 57 61 70 59 58 63 56 59 57 51 48 50 51 52 50 53 57 59 58 60 63
63 58 57 53 55 55 59 58 62 54 48 58 57 55 51 50 48 46 46 49 50 51 55 57 54 57 63
62 59 56 54 51 54 54 56 59 52 42 59 51 46 46 45 41 43 40 40 41 46 51 53 52 60 66
56 58 57 54 51 45 49 47 62 58 44 47 46 41 39 39 37 35 33 34 39 47 51 52 57 61 65
56 53 49 48 45 48 49 49 48 56 49 44 42 37 44 34 31 30 30 35 44 47 48 55 58 61 65
43 42 42 43 44 47 45 45 47 55 43 40 39 33 41 43 37 34 35 42 47 49 53 53 54 58 63
33 32 34 37 40 41 42 43 40 46 32 36 35 33 39 45 49 38 41 47 49 51 49 52 54 54 54
19 27 31 35 34 35 33 30 30 34 32 38 38 39 42 43 44 43 51 51 47 47 50 50 52 52 61
16 21 19 26 27 34 31 30 30 31 33 36 32 34 39 45 50 53 50 54 45 43 46 51 52 50 52
18 13 16 18 23 25 23 25 32 34 35 33 35 41 45 45 53 51 50 51 47 49 51 54 53 52 55
20 12 8 8 11 17 18 22 22 27 32 36 37 44 49 48 42 46 46 48 47 47 47 54 61 58 59
17 14 12 13 11 12 15 22 26 28 31 33 36 41 45 47 46 34 42 44 47 52 55 56 64 67 69
Wind_Direction
282 279 280 277 277 272 272 271 271 266 265 266 269 270 271 277 281 286 290 295 300 306 312 317 320 322 325
278 279 278 276 276 273 275 274 271 268 264 264 266 267 270 275 279 284 287 292 296 303 309 313 315 318 320
280 282 280 278 279 278 276 275 275 269 264 265 265 267 270 273 276 280 284 287 293 298 305 308 312 315 317
280 278 280 280 277 276 276 277 275 273 269 268 267 268 269 271 275 279 282 286 290 297 302 306 309 312 316
277 279 274 279 270 274 274 274 273 274 271 271 271 271 271 271 275 278 281 285 290 296 299 303 307 310 314
273 274 270 273 268 273 273 274 275 271 268 270 270 270 270 271 274 278 282 284 291 295 297 301 303 308 313
270 266 266 265 266 262 272 265 269 279 266 270 270 272 273 272 272 278 282 285 291 294 298 302 305 310 313
264 264 262 269 257 261 266 266 274 276 266 272 273 268 276 275 273 279 281 285 292 297 301 305 306 310 311
268 266 266 264 261 266 267 264 268 272 266 274 275 276 276 275 278 277 278 285 294 300 303 305 306 309 312
283 275 267 261 252 256 263 261 265 269 267 262 274 276 287 286 279 281 285 292 299 300 303 305 307 309 311
283 275 265 260 260 264 262 262 260 274 274 257 270 271 291 303 295 289 291 297 301 301 304 306 309 310 312
289 280 267 263 269 269 268 273 272 274 268 263 278 273 286 296 298 301 298 300 303 305 306 307 310 313 315
297 286 280 276 271 272 274 275 278 280 277 274 282 286 291 294 297 300 302 304 304 305 308 310 312 315 316
308 302 296 283 279 272 266 266 268 280 291 294 296 294 295 298 299 301 304 304 312 313 315 315 315 317 317
295 295 293 286 280 276 269 270 272 278 287 296 300 299 301 303 301 302 304 306 312 314 315 315 318 319 319
292 276 256 266 281 286 281 282 280 283 288 291 298 302 305 307 308 308 311 312 316 317 320 319 318 321 321
294 290 273 267 265 277 283 288 291 293 298 302 304 306 307 308 316 318 316 319 320 320 320 320 319 320 322